#timestamp,LO_Frequency,Hit 
1504508415.2,286046994.1,N
1504508435.1,286046990.1,N
1504508436.0,286046990.1,N
1504508455.8,286046996.3,N
1504508475.6,286046993.4,N
1504508495.5,286046993.7,N
1504508515.3,286046995.4,N
1504508535.1,286046997.5,N
1504508555.9,286046996.9,N
1504508575.7,286046999.0,N
1504508595.5,286046997.5,N
1504508615.4,286046998.6,N
1504508635.2,286046997.0,N
1504508655.0,286046994.2,N
1504508655.9,286046994.2,N
1504508675.8,286046990.5,P
1504508695.6,286046997.7,N
1504508715.4,286046996.6,N
1504508735.3,286047000.9,N
1504508755.1,286046999.3,N
1504508756.0,286046999.3,N
1504508775.8,286047001.1,N
1504508795.7,286046997.4,N
1504508815.5,286046996.7,N
1504508835.3,286046999.5,N
1504508855.1,286047000.9,N
1504508875.9,286046995.4,N
1504508895.7,286046995.3,N
1504508915.5,286046992.3,N
1504508935.4,286046992.5,N
1504508955.2,286046994.6,N
1504508975.0,286046997.1,N
1504508975.9,286046997.1,N
1504508995.8,286046999.7,N
1504509015.6,286047004.4,N
1504509035.4,286047003.9,N
1504509055.3,286047001.1,N
1504509075.1,286046999.0,N
1504509076.0,286046999.0,N
1504509095.8,286046998.8,N
1504509115.7,286046996.9,N
1504509135.5,286046998.7,N
1504509155.3,286046997.1,N
1504509175.2,286047000.8,N
1504509195.9,286046996.8,N
1504509215.7,286046998.1,N
1504509235.7,286046999.4,N
1504509255.5,286046995.3,N
1504509275.3,286046996.0,N
1504509295.2,286046995.0,N
1504509315.9,286046995.3,N
1504509335.7,286046993.3,N
1504509355.6,286046991.7,N
1504509375.4,286046992.1,N
1504509395.2,286046994.7,N
1504509415.0,286046993.1,N
1504509416.0,286046993.1,N
1504509435.8,286046988.5,P
1504509455.6,286046989.2,N
1504509475.5,286046987.4,P
1504509495.3,286046987.0,P
1504509515.1,286047000.8,N
1504509535.9,286047002.1,N
1504509555.7,286047001.8,N
1504509575.5,286047004.3,N
1504509595.4,286047001.2,N
1504509615.2,286046997.9,N
1504509635.0,286046995.2,N
1504509635.9,286046995.2,N
1504509655.8,286046998.3,N
1504509675.6,286046994.9,N
1504509695.4,286046993.8,N
1504509715.3,286047001.0,N
1504509735.1,286046999.0,N
1504509736.0,286046999.0,N
1504509755.8,286046996.7,N
1504509775.7,286046999.3,N
1504509795.5,286046997.3,N
1504509815.3,286046995.1,N
1504509835.1,286046993.6,N
1504509855.9,286046997.7,N
1504509875.7,286046998.1,N
1504509895.5,286046999.3,N
1504509915.4,286046999.2,N
1504509935.2,286046997.0,N
1504509955.0,286046999.2,N
1504509955.9,286046999.2,N
1504509975.8,286046999.1,N
1504509995.6,286046997.7,N
1504510015.4,286046997.2,N
1504510035.3,286046998.0,N
1504510055.1,286046995.3,N
1504510056.0,286046995.3,N
1504510075.8,286046995.4,N
1504510095.7,286046992.4,P
1504510115.5,286046995.3,N
1504510135.3,286046995.3,N
1504510155.2,286046995.5,N
1504510175.9,286046995.4,N
1504510195.7,286046996.1,N
1504510215.6,286046997.5,N
1504510235.4,286046996.5,N
1504510255.2,286047000.4,N
1504510275.0,286046999.6,N
1504510275.9,286046999.6,N
1504510295.8,286046994.7,N
1504510315.6,286046994.8,N
1504510335.4,286046993.6,N
1504510355.3,286046990.2,P
1504510375.1,286046995.7,N
1504510395.8,286046999.6,N
1504510415.7,286047002.0,N
1504510435.5,286046998.1,N
1504510455.3,286046995.0,N
1504510475.2,286046997.2,N
1504510495.9,286046993.3,N
1504510515.7,286046996.1,N
1504510535.6,286046997.8,N
1504510555.4,286046995.3,N
1504510575.2,286046996.8,N
1504510595.1,286046997.4,N
1504510596.0,286046997.4,N
1504510615.8,286046997.5,N
1504510635.6,286046993.9,N
1504510655.5,286046990.7,P
1504510675.3,286046995.1,N
1504510695.1,286047001.2,N
1504510715.9,286046998.9,N
1504510735.7,286046993.7,N
1504510755.5,286047001.2,N
1504510775.4,286047001.5,N
1504510795.2,286047000.3,N
1504510815.0,286046993.9,N
1504510815.9,286046993.9,N
1504510835.8,286046990.1,N
1504510855.6,286046993.0,N
1504510875.4,286046994.5,N
1504510895.3,286046994.7,N
1504510915.1,286046997.2,N
1504510916.0,286046997.2,N
1504510935.8,286046996.1,N
1504510955.8,286046994.3,N
1504510975.6,286046992.5,N
1504510995.5,286046990.4,N
1504511015.3,286046990.7,N
1504511035.1,286046994.1,N
1504511055.9,286046994.3,N
1504511075.7,286046992.0,N
1504511095.5,286046992.7,N
1504511115.4,286046990.2,N
1504511135.2,286046992.0,N
1504511155.0,286046996.1,N
1504511155.9,286046996.1,N
1504511175.8,286046995.5,N
1504511195.6,286046993.1,N
1504511215.4,286046993.9,N
1504511235.3,286046995.8,N
1504511255.1,286046996.6,N
1504511256.0,286046996.6,N
1504511275.8,286046994.9,N
1504511295.2,286046992.2,N
1504511315.9,286046993.2,N
1504511335.8,286046990.9,P
1504511355.6,286046994.9,P
1504511375.4,286046996.2,N
1504511395.3,286046995.7,N
1504511415.1,286046999.6,N
1504511416.0,286046999.6,N
1504511435.8,286046999.0,N
1504511455.7,286047002.7,N
1504511475.5,286046999.7,N
1504511495.3,286047003.5,N
1504511515.2,286046999.4,N
1504511535.9,286046994.9,N
1504511555.7,286046994.9,N
1504511575.6,286046997.2,N
1504511595.4,286046995.7,N
1504511615.2,286046998.9,N
1504511635.1,286046997.0,N
1504511636.0,286046997.0,N
1504511655.8,286046997.7,N
1504511675.6,286047000.8,N
1504511695.4,286047000.8,N
1504511715.3,286046999.4,N
1504511735.1,286046994.9,N
1504511755.8,286046997.6,N
1504511775.7,286046998.1,N
1504511795.5,286047000.3,N
1504511815.4,286047004.0,N
1504511835.2,286047003.9,N
1504511855.0,286047001.4,N
1504511855.9,286047001.4,N
1504511875.8,286046998.1,N
1504511895.6,286046999.4,N
1504511915.4,286046998.0,N
1504511935.2,286046992.5,N
1504511955.1,286046997.9,N
1504511956.0,286046997.9,N
1504511975.8,286046998.0,N
1504511995.6,286046995.4,N
